| time (UTC) | temp C | wind direction | speed KPH | gust KPH | rain 1hr cm | rain 24hr cm | rain mn cm | humidity % | barometer mb |
| 20260905073053 | 20 | 28 | 0.0 | 1.6 | 0.00 | 0.00 | 0.00 | 76 | 1015.8 |
| 20260905070047 | 20 | 28 | 0.0 | 1.6 | 0.00 | 0.00 | 0.00 | 77 | 1016.1 |
| 20260905064532 | 20 | 28 | 0.0 | 8.0 | 0.00 | 0.00 | 0.00 | 77 | 1015.8 |
| 20260905063029 | 16 | 30 | 3.2 | 8.0 | 0.00 | 0.00 | 0.00 | 90 | 1016.1 |
| 20260905060038 | 15 | 275 | 0.0 | 0.0 | 0.00 | 0.00 | 0.00 | 94 | 1016.1 |
| 20260905054536 | 14 | 275 | 0.0 | 0.0 | 0.00 | 0.00 | 0.00 | 94 | 1016.0 |
| 20260905051541 | 13 | 275 | 0.0 | 0.0 | 0.00 | 0.00 | 0.00 | 95 | 1016.1 |
| 20260905044541 | 13 | 271 | 0.0 | 0.0 | 0.00 | 0.00 | 0.00 | 95 | 1015.8 |
| 20260905041538 | 13 | 271 | 0.0 | 0.0 | 0.00 | 0.00 | 0.00 | 95 | 1015.6 |
| 20260905034548 | 13 | 271 | 0.0 | 0.0 | 0.00 | 0.00 | 0.00 | 95 | 1016.2 |
| 20260905033027 | 13 | 271 | 0.0 | 0.0 | 0.00 | 0.00 | 0.00 | 94 | 1016.1 |
| 20260905030038 | 13 | 271 | 0.0 | 0.0 | 0.00 | 0.00 | 0.00 | 95 | 1016.3 |
| 20260905023039 | 13 | 271 | 0.0 | 0.0 | 0.00 | 0.00 | 0.00 | 95 | 1016.3 |
| 20260905020047 | 13 | 271 | 0.0 | 0.0 | 0.00 | 0.00 | 0.00 | 94 | 1016.3 |
| 20260905014550 | 14 | 271 | 0.0 | 0.0 | 0.00 | 0.00 | 0.00 | 94 | 1016.1 |
| 20260905013041 | 14 | 271 | 0.0 | 0.0 | 0.00 | 0.00 | 0.00 | 94 | 1016.2 |
| 20260905010041 | 14 | 271 | 0.0 | 0.0 | 0.00 | 0.00 | 0.00 | 94 | 1016.3 |
| 20260905004533 | 15 | 271 | 0.0 | 0.0 | 0.00 | 0.00 | 0.00 | 94 | 1016.4 |
| 20260905003031 | 15 | 271 | 0.0 | 0.0 | 0.00 | 0.00 | 0.00 | 94 | 1016.5 |
| 20260905000030 | 15 | 271 | 0.0 | 0.0 | 0.00 | 0.00 | 0.00 | 94 | 1017.1 |
| 20260904233028 | 15 | 271 | 0.0 | 0.0 | 0.00 | 0.00 | 0.00 | 94 | 1017.0 |
| 20260904230041 | 15 | 271 | 0.0 | 0.0 | 0.00 | 0.00 | 0.00 | 93 | 1017.3 |
| 20260904223032 | 15 | 271 | 0.0 | 0.0 | 0.00 | 0.00 | 0.00 | 93 | 1017.4 |
| 20260904220056 | 16 | 271 | 0.0 | 0.0 | 0.00 | 0.00 | 0.00 | 92 | 1017.4 |
| 20260904214531 | 16 | 271 | 0.0 | 0.0 | 0.00 | 0.00 | 0.00 | 92 | 1017.3 |
| 20260904211534 | 16 | 271 | 0.0 | 0.0 | 0.00 | 0.00 | 0.00 | 90 | 1017.5 |
| 20260904204536 | 17 | 271 | 0.0 | 0.0 | 0.00 | 0.00 | 0.00 | 89 | 1017.8 |
| 20260904203035 | 17 | 271 | 0.0 | 0.0 | 0.00 | 0.00 | 0.00 | 88 | 1017.8 |
| 20260904200042 | 18 | 271 | 0.0 | 0.0 | 0.00 | 0.00 | 0.00 | 86 | 1017.9 |
| 20260904194535 | 18 | 271 | 0.0 | 1.6 | 0.00 | 0.00 | 0.00 | 84 | 1017.9 |
| 20260904191542 | 19 | 271 | 0.0 | 0.0 | 0.00 | 0.00 | 0.00 | 84 | 1018.2 |
| 20260904184537 | 18 | 271 | 0.0 | 3.2 | 0.00 | 0.00 | 0.00 | 84 | 1018.0 |
| 20260904183041 | 18 | 271 | 0.0 | 0.0 | 0.00 | 0.00 | 0.00 | 80 | 1017.8 |
| 20260904181531 | 18 | 271 | 0.0 | 0.0 | 0.00 | 0.00 | 0.00 | 78 | 1017.5 |
| 20260904174603 | 20 | 271 | 0.0 | 0.0 | 0.00 | 0.00 | 0.00 | 74 | 1017.3 |
| 20260904172313 | 21 | 271 | 0.0 | 1.6 | 0.00 | 0.00 | 0.00 | 70 | 1017.3 |
| 20260904170027 | 21 | 271 | 0.0 | 3.2 | 0.00 | 0.00 | 0.00 | 69 | 1017.2 |
| 20260904164526 | 22 | 271 | 0.0 | 1.6 | 0.00 | 0.00 | 0.00 | 64 | 1017.4 |
| 20260904161538 | 25 | 271 | 0.0 | 4.8 | 0.00 | 0.00 | 0.00 | 58 | 1017.2 |
| 20260904154546 | 26 | 288 | 1.6 | 4.8 | 0.00 | 0.00 | 0.00 | 55 | 1017.3 |
| 20260904153034 | 27 | 288 | 0.0 | 3.2 | 0.00 | 0.00 | 0.00 | 53 | 1017.4 |
| 20260904151534 | 26 | 288 | 0.0 | 6.4 | 0.00 | 0.00 | 0.00 | 54 | 1017.5 |
| 20260904145327 | 27 | 285 | 0.0 | 4.8 | 0.00 | 0.00 | 0.00 | 53 | 1017.7 |
| 20260904143042 | 26 | 259 | 1.6 | 6.4 | 0.00 | 0.00 | 0.00 | 54 | 1017.8 |
| 20260904140039 | 26 | 266 | 1.6 | 11.3 | 0.00 | 0.00 | 0.00 | 55 | 1017.8 |
| 20260904133042 | 26 | 324 | 0.0 | 6.4 | 0.00 | 0.00 | 0.00 | 58 | 1018.1 |
| 20260904131540 | 26 | 19 | 1.6 | 11.3 | 0.00 | 0.00 | 0.00 | 61 | 1018.1 |
| 20260904124537 | 26 | 213 | 0.0 | 11.3 | 0.00 | 0.00 | 0.00 | 61 | 1018.4 |
| 20260904123034 | 26 | 268 | 4.8 | 12.9 | 0.00 | 0.00 | 0.00 | 60 | 1018.4 |
| 20260904120038 | 25 | 228 | 1.6 | 12.9 | 0.00 | 0.00 | 0.00 | 63 | 1018.5 |
| 20260904113049 | 26 | 236 | 3.2 | 8.0 | 0.00 | 0.00 | 0.00 | 62 | 1018.8 |
| 20260904110042 | 24 | 287 | 0.0 | 17.7 | 0.00 | 0.00 | 0.00 | 63 | 1019.0 |
| 20260904104538 | 24 | 236 | 3.2 | 8.0 | 0.00 | 0.00 | 0.00 | 63 | 1019.1 |
| 20260904101541 | 23 | 241 | 3.2 | 11.3 | 0.00 | 0.00 | 0.00 | 65 | 1019.2 |
| 20260904094531 | 23 | 240 | 4.8 | 11.3 | 0.00 | 0.00 | 0.00 | 62 | 1019.4 |
| 20260904091541 | 22 | 360 | 0.0 | 1.6 | 0.00 | 0.00 | 0.00 | 66 | 1019.5 |
| 20260904084540 | 21 | 261 | 0.0 | 4.8 | 0.00 | 0.00 | 0.00 | 68 | 1019.4 |
| 20260904083043 | 20 | 261 | 0.0 | 1.6 | 0.00 | 0.00 | 0.00 | 70 | 1019.7 |
| 20260904080042 | 20 | 261 | 0.0 | 0.0 | 0.00 | 0.00 | 0.00 | 75 | 1019.8 |
| 20260904074539 | 19 | 261 | 0.0 | 0.0 | 0.00 | 0.00 | 0.00 | 75 | 1019.6 |